Theta_e
335 326 327 328 329 326 321 318 298 302 303 295 295 297 296 302 306 304 304 309 306 310 317 317 318 318 314 314 314 316 318 314 315 306 303 324 343 344 346 351 352 354 355 357 359 358 357 358 359 358 357 356 356 356 356 355 354 354 354 354 354 354 355 354 354 354 354 354 354 353 353 353 352 352 352 351 351 351 351 351 351 351 351 352 352 351 350 350 349 349 349 349 349 350 350 351 350
325 320 322 326 323 319 313 315 298 298 296 293 296 298 299 304 304 303 301 306 308 312 314 316 316 319 321 320 321 323 322 329 328 327 336 342 344 345 351 352 353 352 355 358 358 358 357 357 358 357 356 356 356 356 355 355 354 354 354 353 353 354 354 354 354 354 354 354 353 353 353 352 352 351 351 351 351 351 350 350 350 351 350 351 351 350 348 347 347 348 348 348 348 348 348 349 349
322 319 319 322 318 315 314 311 298 294 293 290 294 297 303 301 302 304 305 308 311 314 317 316 318 319 318 318 318 317 314 335 335 337 336 343 339 343 349 351 353 354 356 357 357 357 357 356 357 357 356 356 355 355 355 355 354 353 354 353 353 353 354 354 354 354 354 354 353 353 352 352 351 351 351 351 350 350 350 350 350 350 350 350 351 350 349 349 348 348 348 348 348 348 348 348 348
319 321 318 319 311 314 305 303 296 294 292 291 292 300 300 302 304 305 308 311 313 314 317 316 313 318 315 312 317 330 327 331 336 336 335 338 340 345 348 352 355 355 355 356 357 356 356 357 357 356 356 355 355 355 355 355 354 354 353 353 352 353 354 354 354 353 353 353 352 352 352 351 351 351 351 350 350 350 351 350 350 350 350 350 349 347 347 348 348 348 348 348 348 348 348 348 347
315 321 322 317 310 305 305 300 297 296 294 293 292 299 304 305 306 306 308 312 312 314 314 315 314 318 319 318 325 321 323 334 336 340 338 342 347 348 349 351 352 352 353 356 356 356 356 357 357 356 356 355 355 355 354 354 354 354 353 352 353 353 353 353 353 353 353 353 352 352 351 351 351 350 350 350 350 350 350 349 349 349 350 350 349 348 347 346 348 348 348 348 348 347 347 346 345
315 314 322 317 308 312 306 300 297 295 300 300 298 301 304 305 305 305 308 311 313 315 316 315 313 313 315 321 323 323 333 326 336 338 340 340 347 349 348 350 349 350 353 355 356 356 356 357 356 356 355 355 354 354 354 354 354 353 352 352 353 353 353 353 353 353 353 353 352 351 351 351 350 350 350 350 350 349 349 349 349 349 349 350 350 349 349 348 348 347 347 347 347 346 346 345 345
310 308 313 314 312 310 296 294 294 295 300 303 302 304 306 307 306 307 310 311 311 314 315 313 316 315 312 322 327 330 338 340 337 339 343 344 347 347 346 346 347 350 353 354 355 355 355 357 356 355 355 355 354 354 354 354 353 353 352 352 353 353 352 353 353 353 353 352 351 351 351 350 350 350 350 350 350 350 349 349 349 349 349 349 348 347 348 347 346 346 345 346 347 345 344 344 343
316 306 306 304 301 301 295 294 295 296 298 304 306 306 307 308 307 308 309 308 308 311 317 314 316 316 315 327 318 329 338 341 342 345 345 345 345 344 344 344 346 350 352 353 354 354 358 356 355 354 354 354 354 354 353 353 353 352 352 352 352 352 352 353 353 353 353 352 351 351 350 350 350 350 350 350 350 349 349 349 350 350 348 346 345 345 344 344 344 344 345 345 344 344 343 342 343
308 307 309 301 296 299 294 294 295 299 300 303 304 308 316 310 310 308 307 312 310 312 312 314 318 314 316 324 322 332 339 344 346 348 344 344 342 342 343 345 348 349 351 353 354 355 354 356 355 354 354 354 354 353 353 352 352 352 352 352 352 352 352 352 353 353 352 351 351 351 350 350 350 350 349 349 349 349 349 350 350 349 348 347 346 345 344 344 344 345 344 344 344 343 341 342 343
304 305 299 298 297 295 293 293 293 297 299 303 304 305 307 309 308 310 309 312 310 310 311 313 317 315 322 321 325 331 337 344 345 343 343 342 341 341 343 347 349 349 350 352 353 353 353 356 355 354 354 354 354 353 353 353 352 352 352 352 352 353 353 353 352 353 353 352 351 351 351 351 351 349 349 349 349 349 350 350 350 348 346 345 344 344 343 344 344 344 344 343 342 341 342 342 343
298 303 303 297 293 292 292 293 296 300 301 304 305 307 308 309 309 309 309 310 312 311 316 323 319 319 322 322 323 337 343 344 341 335 338 341 342 341 343 347 350 351 350 351 352 352 353 353 355 354 354 354 353 353 353 353 353 353 353 353 353 353 353 352 353 353 353 352 352 351 351 351 351 349 349 349 350 350 351 350 349 348 346 345 344 343 343 343 343 343 343 342 341 341 342 343 345
295 297 298 291 292 291 292 293 297 299 302 303 303 307 308 308 309 308 308 308 308 305 306 321 317 324 320 323 325 336 342 339 337 338 340 342 342 344 346 347 348 349 351 351 352 351 351 352 352 354 354 354 354 353 353 353 352 353 353 353 352 352 353 352 352 353 352 352 352 351 351 350 350 350 349 350 350 350 350 350 349 347 346 345 344 343 343 343 342 342 342 341 341 341 342 344 346
297 298 295 293 290 292 294 295 296 300 299 299 302 306 309 307 307 308 308 306 304 307 314 322 324 324 316 321 330 339 336 337 337 338 339 340 342 343 343 341 343 345 350 351 351 350 350 351 351 352 353 354 354 353 353 353 353 353 353 353 352 352 353 353 352 352 352 352 351 351 350 350 349 350 350 350 350 350 350 350 349 347 346 345 344 343 343 342 341 341 341 341 341 342 343 345 346
299 297 296 293 293 294 294 293 294 293 295 301 304 307 310 306 308 306 305 303 303 304 314 324 323 325 322 329 332 332 333 337 336 336 338 339 341 341 338 339 341 343 348 350 349 350 350 350 350 350 351 350 350 351 352 353 353 353 353 353 352 352 352 352 352 352 352 352 352 350 350 350 350 350 350 350 350 350 350 349 349 347 345 345 344 343 342 341 340 341 341 341 342 343 343 344 345
300 300 297 294 292 294 294 293 294 293 296 302 304 305 307 309 307 306 304 301 302 306 311 327 326 322 317 324 325 331 333 335 334 335 335 337 337 337 337 338 339 340 345 348 349 349 349 349 349 349 349 349 349 348 349 351 353 353 352 353 352 352 352 352 352 351 351 350 350 350 350 350 350 350 351 351 350 350 349 349 348 347 345 345 344 343 342 340 340 341 342 342 343 342 343 343 346
300 299 296 294 290 291 293 294 297 295 295 299 303 306 305 306 307 306 306 305 305 319 318 308 315 302 324 328 332 334 334 333 334 335 335 334 335 335 336 336 337 339 340 345 346 347 348 348 348 348 348 348 348 348 349 349 352 353 353 353 352 352 352 352 352 352 351 350 350 350 350 350 349 349 350 350 350 351 349 349 347 346 346 345 343 341 340 340 341 341 342 343 342 342 341 344 343
302 300 292 291 288 291 292 294 295 290 297 301 303 305 302 302 305 306 308 311 319 325 327 328 327 331 325 332 336 335 334 335 335 333 332 332 332 331 332 333 334 334 338 340 343 345 347 347 347 347 347 347 347 347 347 348 350 352 352 352 351 351 352 352 351 350 350 349 349 349 348 347 346 345 348 347 350 349 349 349 348 346 345 344 342 341 340 341 342 342 342 342 342 341 344 343 345
300 294 291 289 289 292 295 296 297 298 297 299 302 303 302 301 303 303 304 306 320 326 326 329 332 333 335 335 336 336 335 333 333 331 329 328 330 329 329 331 332 332 335 337 342 345 345 347 346 346 347 347 347 347 348 347 349 350 347 347 347 347 349 350 348 348 350 346 348 347 345 347 343 343 346 348 347 349 348 349 348 347 345 344 342 341 340 341 340 342 342 342 343 343 339 328 333
295 292 291 289 291 295 299 300 300 297 296 299 301 302 301 301 302 303 300 300 312 320 324 327 327 330 333 334 335 335 335 333 332 330 328 327 327 328 328 329 331 332 333 336 338 342 343 346 346 345 346 346 346 347 347 347 347 346 346 345 347 349 349 349 346 349 346 345 345 345 345 342 342 342 343 348 347 349 348 349 349 347 345 344 343 341 340 340 340 341 341 341 341 340 331 329 328
295 294 289 291 295 297 300 301 300 299 300 299 299 300 300 300 302 304 299 299 310 315 319 323 325 326 330 332 334 334 334 333 332 330 328 328 328 328 328 329 330 331 333 334 335 338 341 344 344 345 345 345 345 345 346 346 345 346 344 344 344 344 345 345 344 344 345 345 344 343 341 342 341 339 349 349 349 345 346 349 349 347 346 344 343 343 342 341 341 342 341 342 341 337 332 332 334
294 294 290 292 295 296 298 300 299 299 300 300 298 298 298 300 302 301 299 297 297 307 322 323 323 326 328 331 332 333 333 332 331 331 329 328 328 328 329 330 330 331 333 333 334 335 338 343 343 343 344 344 344 344 344 344 344 344 343 343 343 341 342 341 341 342 343 343 343 343 342 342 341 341 341 342 341 342 340 340 343 342 339 338 344 334 335 338 336 334 333 337 332 333 333 332 335
298 294 296 297 297 296 300 300 300 298 299 297 296 297 297 300 300 299 299 295 294 300 316 325 325 326 328 329 331 332 331 331 331 330 329 328 327 326 328 329 330 330 332 331 332 334 337 341 341 342 343 343 343 343 344 345 344 342 341 341 341 340 340 339 339 341 341 342 343 342 343 341 340 341 340 341 342 341 341 340 340 340 338 337 341 335 335 335 334 334 334 333 333 332 332 333 334
292 294 295 296 298 297 299 300 298 297 297 295 296 297 299 296 298 299 299 298 299 307 321 324 325 326 327 328 327 327 328 329 329 329 329 326 326 327 327 329 329 329 331 330 331 333 335 336 338 341 341 342 342 344 344 345 342 343 340 340 340 338 339 338 338 339 340 341 342 343 341 339 340 339 339 340 340 340 340 339 339 339 339 337 338 336 335 335 334 334 333 333 333 332 333 335 335
295 291 294 298 297 297 298 298 296 295 295 296 298 298 297 295 295 298 297 299 302 317 323 324 325 325 325 323 324 324 325 325 326 327 327 327 327 327 328 328 330 330 330 329 329 330 334 334 335 337 338 341 341 344 343 343 341 342 339 343 341 340 339 338 337 338 340 340 341 341 343 340 340 339 339 339 338 338 339 339 339 338 340 339 339 338 336 335 334 334 334 333 334 333 334 337 334
294 294 296 297 299 298 297 296 294 295 295 295 295 295 296 296 296 297 297 298 306 316 322 323 323 323 323 323 323 324 324 324 324 323 324 324 325 326 326 326 327 329 329 327 329 331 333 334 335 335 337 339 341 343 342 341 341 341 340 340 338 342 338 338 337 338 338 339 340 341 342 339 339 339 339 338 337 337 337 338 337 338 338 339 340 338 337 335 334 334 334 335 334 334 335 334 331
296 296 298 298 298 297 295 294 294 295 298 296 295 295 295 295 299 296 298 299 300 313 321 323 323 323 323 323 323 323 323 323 323 322 322 323 324 324 324 325 326 327 328 327 329 330 332 334 334 334 336 336 340 341 341 340 340 339 338 339 337 341 338 338 336 337 337 339 339 340 343 340 340 339 339 338 337 336 336 337 337 337 337 338 339 338 337 335 334 333 334 335 335 335 333 331 331
297 296 296 296 296 297 297 295 297 297 298 295 294 293 295 295 296 291 295 300 313 318 320 322 322 321 322 323 324 325 324 322 322 322 323 322 322 322 323 323 324 326 327 327 328 329 333 333 333 334 334 338 336 337 339 339 340 339 338 339 338 338 338 338 336 336 337 339 340 340 343 342 340 340 340 339 337 337 336 336 336 337 337 338 339 339 339 336 334 333 334 335 335 333 331 333 330
296 297 295 293 294 295 296 295 295 295 295 294 294 294 294 295 295 291 296 303 318 318 320 321 321 322 323 324 325 325 324 324 324 322 324 324 321 321 321 322 323 324 326 325 327 329 333 333 334 335 334 335 336 335 337 338 338 339 339 338 338 338 337 336 335 335 337 339 340 340 342 341 342 340 340 340 338 337 336 336 337 336 337 338 339 339 339 339 337 336 337 336 333 333 333 333 332
295 294 292 291 292 292 292 294 296 296 293 295 294 290 289 290 293 294 298 307 321 320 320 321 321 322 323 324 325 325 325 325 324 322 323 323 321 323 322 323 324 324 327 328 329 331 331 332 334 333 334 334 333 334 335 336 337 340 338 338 337 338 336 335 334 335 337 339 340 340 340 341 342 341 341 341 341 339 338 337 336 338 338 339 339 340 340 339 338 337 336 336 333 333 333 333 334
296 292 291 289 287 288 292 293 296 294 295 294 294 282 282 287 290 295 299 314 322 321 321 322 323 324 324 325 325 325 326 325 323 323 323 323 322 323 324 325 326 326 329 331 330 331 335 336 337 335 334 333 335 334 337 335 335 335 339 338 338 337 335 334 335 335 337 338 339 339 340 341 341 341 341 340 340 339 338 338 337 338 338 339 339 339 338 337 337 336 334 333 338 333 332 332 331
291 292 288 287 284 281 289 294 294 293 294 294 292 284 284 292 296 298 302 316 316 316 319 321 323 324 325 325 325 324 325 325 326 325 326 326 325 325 325 326 326 327 331 330 330 332 334 336 338 336 336 333 335 334 333 333 335 335 336 336 336 334 333 333 334 335 336 338 339 339 340 340 340 341 341 340 339 339 338 338 337 337 339 339 338 338 338 338 337 336 335 334 334 331 331 334 332
289 286 280 282 285 283 289 294 295 291 295 294 291 285 288 293 296 299 303 312 315 313 314 316 319 322 324 325 326 326 328 329 328 328 327 327 327 327 326 327 327 327 328 329 333 333 333 334 335 333 334 332 332 334 333 334 334 334 333 336 333 332 331 333 334 335 335 338 339 339 339 340 340 340 340 340 338 338 338 337 337 337 338 338 338 337 338 337 336 336 336 335 332 331 332 333 332
285 284 282 284 283 285 288 291 293 294 294 294 291 284 291 295 296 299 307 311 312 311 312 313 314 315 316 317 319 321 322 324 326 329 329 328 329 328 328 328 328 327 327 330 332 331 331 332 333 330 330 331 331 332 332 333 333 335 335 333 333 332 330 333 334 335 335 337 338 339 339 339 339 339 340 339 337 337 337 337 337 337 338 338 337 337 336 337 335 335 333 335 334 331 332 332 331
281 285 283 285 285 285 284 288 293 293 293 290 290 290 292 295 297 302 309 312 312 311 311 313 314 314 315 315 316 317 320 322 323 325 328 331 330 329 329 333 329 330 333 333 331 329 329 331 332 332 331 332 330 332 332 332 333 333 334 334 335 333 335 333 334 334 335 335 336 338 339 340 340 338 339 338 337 337 336 336 336 337 338 337 336 336 334 335 334 334 333 334 335 333 331 331 330
283 284 285 285 286 286 286 286 290 292 291 290 289 288 290 295 296 302 308 312 311 311 311 312 312 312 313 314 316 319 320 321 322 325 327 327 329 330 331 330 330 332 333 331 331 331 331 330 331 331 330 330 331 331 333 333 333 333 334 335 335 334 336 335 333 333 335 335 336 338 339 340 340 338 339 338 335 336 334 333 335 336 337 336 336 335 333 332 332 331 332 332 334 331 331 331 331
288 289 286 285 285 285 285 291 293 293 290 288 289 286 292 293 295 300 306 310 309 310 311 311 312 312 312 313 314 317 319 320 323 325 327 327 327 328 330 332 333 332 331 331 330 328 326 328 330 329 330 330 331 331 332 331 331 332 331 332 333 334 333 336 334 333 335 335 337 339 338 338 337 337 337 336 334 334 331 330 335 334 335 335 334 333 330 329 329 330 329 330 329 331 333 330 330
293 292 291 288 287 288 291 293 293 295 290 289 289 289 293 293 295 299 305 307 307 308 308 309 310 310 311 312 313 313 315 317 321 324 325 325 326 328 329 331 332 332 331 329 329 329 327 326 327 327 329 331 331 331 330 330 329 329 330 330 331 332 333 332 334 333 335 335 337 338 338 337 337 336 336 334 334 338 331 329 333 332 334 335 333 332 331 329 328 330 331 331 328 325 326 328 330
292 290 289 287 288 286 292 292 294 294 290 290 290 292 293 293 295 300 305 306 305 306 307 308 309 310 311 311 311 312 313 315 317 319 322 323 324 325 326 327 330 324 325 327 326 327 326 325 327 327 329 330 331 331 332 331 331 330 330 329 331 334 332 331 332 334 335 337 337 338 338 335 337 334 336 332 334 335 333 330 331 330 331 332 333 332 329 334 332 330 331 329 330 326 324 327 329
291 288 288 288 288 291 292 293 294 296 291 289 290 291 294 294 295 300 304 304 305 308 308 309 309 309 310 310 310 311 312 312 314 315 317 321 322 322 323 324 324 326 324 324 323 325 326 326 327 328 329 331 330 331 331 331 331 332 331 331 331 332 335 336 333 337 339 335 334 336 337 335 337 333 334 334 332 333 334 331 330 329 329 333 331 329 329 329 328 329 329 327 326 326 326 327 326
289 287 285 287 290 288 285 291 293 293 291 289 290 289 290 293 296 299 302 304 305 308 309 309 310 309 309 309 310 310 310 311 312 313 314 317 319 320 320 321 322 324 326 324 322 323 323 328 330 330 329 330 331 331 332 332 332 332 333 332 332 332 332 336 335 334 336 336 334 335 335 334 336 334 335 333 333 332 333 333 331 329 329 331 330 328 326 327 326 327 328 329 327 323 323 322 326
289 292 289 288 290 291 290 290 291 291 291 291 288 285 285 289 295 297 301 306 306 307 308 308 309 310 311 311 311 311 310 311 311 313 314 316 318 319 319 321 320 323 326 328 325 323 325 325 327 330 331 329 330 332 332 331 332 331 332 333 334 332 332 330 330 330 333 336 335 334 335 333 336 336 337 334 334 332 332 334 332 331 330 330 331 328 327 327 327 329 332 330 328 325 323 323 324
286 291 292 293 293 292 293 293 289 282 284 287 286 277 283 286 293 295 298 301 302 304 305 305 307 308 309 309 309 311 312 312 313 313 314 315 315 317 318 319 320 322 325 328 331 328 325 325 325 329 331 332 331 331 332 331 331 329 330 329 327 327 326 326 326 327 329 332 333 335 336 334 336 335 336 337 334 334 332 333 334 333 329 331 332 329 328 327 327 328 332 332 330 328 326 324 323
286 288 294 292 292 292 291 290 287 281 282 288 290 280 278 284 291 294 296 297 298 300 301 303 304 306 308 309 310 310 311 311 312 313 314 315 314 316 316 317 317 320 325 328 329 330 330 327 326 329 331 332 332 332 333 332 330 330 330 329 329 328 327 328 329 330 332 334 335 334 334 334 335 334 334 336 337 336 334 332 334 335 332 331 335 331 329 329 329 330 332 333 331 331 329 325 324
286 292 293 293 292 291 290 289 287 284 288 289 289 284 280 280 289 295 296 295 295 296 298 299 301 303 305 306 309 310 311 312 312 312 312 313 314 314 315 316 318 320 323 325 326 329 329 331 331 331 332 333 332 332 333 332 331 330 329 330 330 329 329 329 331 329 333 335 333 333 333 333 333 333 333 334 337 338 337 332 332 334 334 332 333 332 331 332 333 333 333 334 333 332 330 327 326
290 294 295 292 293 293 291 288 286 288 285 281 283 290 280 279 289 295 296 293 293 294 297 298 300 301 302 304 307 309 311 311 312 312 311 312 312 313 315 316 318 319 320 322 323 325 329 330 331 332 332 332 332 332 332 332 332 331 329 328 329 331 331 331 332 334 333 335 332 332 332 333 333 333 333 334 335 336 337 334 331 332 334 335 336 333 331 333 333 332 332 332 332 332 332 331 328
295 296 296 294 293 293 292 287 286 284 282 276 282 288 279 280 285 289 294 292 292 294 296 298 299 301 301 303 306 309 310 310 311 311 311 311 311 312 313 315 316 317 319 321 322 325 329 328 328 329 330 332 332 332 333 332 331 330 328 327 328 328 330 331 332 331 331 332 331 331 331 331 332 332 333 333 333 334 335 336 333 331 331 333 337 334 331 331 332 332 332 331 331 331 331 331 331
296 294 292 289 289 287 288 286 285 282 276 277 284 290 282 277 283 287 287 289 293 295 296 298 300 301 302 304 306 308 309 309 310 310 310 310 311 311 312 313 314 316 317 319 322 325 328 329 330 329 330 331 332 332 332 331 330 329 328 328 327 328 329 330 329 329 330 330 329 329 330 330 330 331 333 334 334 333 333 336 335 333 333 335 337 336 335 333 333 333 333 332 332 332 333 332 332
295 290 289 286 285 284 282 281 283 277 273 279 286 287 286 278 279 287 291 295 296 297 296 297 298 300 301 302 304 307 308 308 309 309 309 309 310 311 311 312 313 315 317 317 318 321 325 328 329 328 329 328 327 330 331 331 330 329 328 328 328 328 328 329 329 329 329 329 329 329 329 330 329 329 328 329 330 333 335 334 336 336 336 335 335 335 335 336 336 335 334 333 333 333 333 334 331
292 287 285 281 276 277 274 277 276 275 275 283 287 288 283 280 282 287 296 296 298 298 298 298 298 300 300 302 304 305 306 308 308 308 308 308 307 308 309 310 311 313 316 318 319 320 322 324 326 326 327 327 326 329 328 329 329 328 328 329 328 329 328 329 328 327 330 330 330 328 327 327 327 327 326 327 329 331 334 334 336 335 335 336 336 335 335 335 335 335 334 334 333 333 334 334 333
290 285 281 277 275 271 268 269 274 275 280 286 287 289 280 283 288 293 294 298 299 299 299 300 300 299 300 302 303 304 305 306 306 307 307 307 307 308 308 309 311 314 318 320 320 319 319 321 323 323 324 325 327 325 326 327 328 328 329 327 328 329 328 329 328 327 329 330 329 328 329 328 327 327 326 327 328 330 333 334 336 336 336 336 336 336 335 335 334 333 334 333 333 333 333 331 329
290 291 288 285 276 275 270 272 272 272 276 282 289 284 278 281 284 294 298 299 300 300 301 300 301 301 301 302 302 303 304 304 305 305 308 307 308 308 308 308 311 315 318 320 320 319 319 320 321 322 322 325 325 325 326 329 329 329 329 329 329 329 328 328 328 329 328 329 328 328 328 329 328 327 327 328 330 329 332 335 334 334 333 333 333 333 334 331 332 332 333 332 331 329 330 330 328
290 293 289 284 281 281 277 275 276 278 277 277 280 280 285 283 293 298 298 299 300 301 300 301 300 301 301 301 301 301 302 304 305 305 306 307 308 308 307 308 311 314 316 317 320 319 320 322 321 320 321 323 325 326 327 328 328 327 327 327 327 328 330 328 328 327 328 329 328 330 329 328 328 328 329 329 331 331 331 333 335 333 331 330 330 330 329 329 329 329 329 331 330 331 329 329 329
287 288 282 285 291 286 278 280 283 279 278 276 278 284 288 292 294 297 297 297 297 298 298 299 299 300 300 299 300 301 302 302 303 304 305 307 307 307 308 308 310 313 315 316 317 320 320 321 319 319 320 320 323 326 326 326 324 324 325 326 327 328 327 327 327 328 329 329 329 328 329 330 329 328 329 331 329 331 331 330 331 331 330 330 329 331 330 328 329 330 330 329 329 330 330 329 329
288 284 285 293 295 291 283 276 277 276 272 272 282 280 281 284 279 291 294 294 294 296 297 298 298 298 299 299 300 301 301 302 303 305 306 306 307 310 310 310 311 312 316 315 316 320 320 319 320 319 320 319 321 323 323 326 327 326 325 325 327 328 328 327 327 327 329 329 328 328 329 328 328 330 330 330 329 328 329 333 330 330 328 329 329 329 329 329 330 331 332 332 331 330 329 328 329
290 288 297 288 279 282 282 279 271 272 272 271 278 281 279 282 279 288 291 292 293 295 296 297 297 298 298 299 300 300 301 301 302 304 304 304 306 307 308 310 311 312 315 317 317 318 319 319 318 318 318 320 322 322 323 323 325 327 327 326 326 327 327 327 328 328 328 328 327 328 328 328 328 328 329 329 328 329 330 331 330 329 329 328 327 328 329 329 330 330 333 333 331 330 329 328 329
297 296 293 294 286 280 279 279 279 278 270 273 275 279 275 285 283 289 292 293 294 295 295 296 297 298 298 298 299 300 300 301 302 302 303 304 305 306 309 310 311 311 312 314 315 316 316 318 318 317 316 317 318 322 322 322 323 325 326 327 327 328 328 327 329 328 327 326 326 327 328 328 328 329 328 329 328 329 330 331 331 331 331 331 330 330 330 330 330 331 332 330 329 329 328 328 326
286 288 286 290 287 291 285 284 281 277 273 271 270 273 275 283 291 291 292 294 295 296 296 296 297 297 298 299 299 300 301 301 301 302 302 304 305 307 310 311 313 311 313 315 315 314 315 316 318 317 315 315 316 318 322 322 323 324 324 324 325 327 328 328 329 328 327 327 327 328 328 329 330 328 329 329 328 329 331 331 330 330 330 331 331 330 330 331 331 331 331 330 329 328 328 327 326
289 286 283 285 283 282 279 278 287 285 280 276 274 272 276 284 298 295 293 295 296 297 297 296 296 297 297 298 299 300 301 301 302 301 302 304 305 307 309 311 312 310 309 308 312 312 313 314 316 315 315 314 314 316 322 322 323 323 323 324 324 327 327 328 328 328 327 328 329 328 328 329 328 328 329 329 330 330 330 330 329 329 329 328 328 328 329 330 331 329 329 328 327 328 327 327 325
Wind_Speed
4 2 1 1 1 0 2 1 1 2 2 2 2 1 5 3 4 1 2 2 1 3 6 3 4 7 3 3 6 5 2 4 3 6 3 1 6 10 9 12 11 12 13 9 9 10 10 12 14 15 15 15 14 12 12 13 14 13 12 12 13 13 13 12 12 12 12 13 14 14 13 13 13 13 13 13 12 13 14 15 16 16 17 17 17 16 16 15 15 16 16 16 16 17 17 16 16
1 3 3 0 0 0 1 1 2 1 3 1 6 1 6 4 4 8 4 3 3 2 8 13 7 6 8 9 6 7 6 4 4 2 3 6 9 8 10 13 14 15 12 9 10 9 9 11 14 14 15 15 14 13 13 13 13 13 12 11 10 13 13 12 12 12 12 12 13 13 13 12 12 12 12 12 11 12 14 15 16 16 16 17 17 16 16 16 16 15 16 15 16 16 16 15 14
2 4 4 3 2 1 0 1 0 1 2 3 6 5 1 4 8 7 8 4 5 6 7 10 7 3 6 5 4 5 1 3 12 7 6 10 13 6 11 12 13 14 13 9 11 10 8 10 14 14 15 15 15 13 13 13 13 13 12 11 10 11 12 12 12 12 12 12 12 12 12 12 12 12 11 11 11 12 14 14 15 15 15 16 16 16 16 16 15 15 14 15 15 15 15 13 13
2 2 3 2 1 1 1 1 3 4 2 5 4 6 4 5 10 9 6 10 9 5 2 1 3 3 5 5 6 3 3 2 2 12 8 6 5 11 12 13 13 12 11 9 9 11 9 12 15 14 15 16 15 14 13 13 12 13 12 11 10 10 11 12 12 12 13 11 11 12 11 11 11 11 11 11 12 12 13 14 14 14 15 15 15 14 15 16 15 15 14 14 13 13 12 12 11
3 1 1 2 2 1 1 2 3 3 4 4 4 5 5 6 9 6 1 2 4 10 5 2 3 1 1 4 4 2 3 6 5 3 7 7 12 13 14 14 12 12 11 11 11 11 10 16 16 15 15 16 16 14 14 14 13 12 12 11 11 10 10 11 12 13 12 11 11 11 11 11 11 11 11 11 12 13 13 14 14 13 14 15 15 14 14 15 15 15 14 14 13 12 11 11 10
2 2 0 2 0 1 1 1 1 3 7 3 3 6 5 4 5 5 4 6 6 9 10 8 5 6 3 2 2 2 6 4 4 3 10 11 15 16 16 14 14 12 11 10 10 10 10 16 15 16 16 16 16 15 14 14 14 12 12 12 11 11 10 11 11 12 12 11 10 10 10 10 10 11 11 12 13 13 14 13 13 13 13 13 13 15 15 15 15 15 14 14 13 11 11 10 8
1 2 1 1 1 1 3 2 3 4 9 4 6 8 10 9 6 3 1 7 3 7 1 1 8 7 5 1 8 3 5 9 6 6 8 14 14 15 14 14 14 15 13 11 10 10 13 18 17 17 17 16 15 14 14 13 13 12 12 12 11 10 10 10 11 12 12 11 11 10 9 9 10 11 11 12 13 13 14 14 13 13 13 12 12 13 14 15 15 15 15 14 11 11 10 9 7
1 2 1 2 1 1 0 2 5 4 6 7 8 11 9 12 7 4 3 4 4 4 1 5 10 8 4 1 7 3 6 4 11 15 18 14 14 14 13 12 13 13 13 12 10 9 16 18 17 17 18 18 17 16 15 14 13 12 12 12 11 10 10 10 10 11 11 11 11 10 9 9 9 10 11 12 12 13 13 13 13 13 12 11 11 12 14 15 15 15 14 12 10 10 9 7 7
1 2 1 3 1 0 0 4 6 4 6 4 7 9 8 11 9 2 4 0 2 5 9 12 15 10 1 11 7 4 7 13 14 17 16 16 15 13 10 13 13 12 13 12 11 10 10 15 14 15 16 17 18 17 17 15 14 13 12 12 11 11 10 9 10 10 11 11 10 10 9 9 9 10 11 11 12 13 13 13 13 13 12 12 12 13 13 14 14 14 13 11 11 10 8 7 7
0 2 0 2 2 1 1 6 3 5 4 5 7 12 10 6 7 3 5 0 3 2 2 8 4 10 9 12 8 6 6 13 14 14 11 12 12 9 10 12 11 11 11 12 12 11 9 15 15 13 13 14 15 15 16 15 13 12 12 12 11 10 9 8 7 9 9 10 10 9 9 8 8 10 10 11 11 12 12 12 12 12 11 11 12 12 13 14 14 13 12 12 11 8 6 6 6
1 1 1 1 0 1 3 7 5 8 8 6 10 13 13 8 8 4 5 5 3 2 15 16 12 10 11 6 5 4 10 11 13 10 9 12 10 9 11 10 11 9 8 8 9 11 12 11 17 15 12 12 11 12 13 14 13 11 10 10 11 10 10 9 7 7 8 9 9 10 9 8 8 9 10 11 11 11 11 12 11 11 10 10 11 11 12 12 11 12 12 12 9 6 6 6 7
1 1 1 2 2 3 4 3 5 8 10 7 8 12 8 13 4 7 2 7 2 4 6 10 6 12 10 7 5 6 12 12 11 11 12 13 12 13 13 11 13 9 8 6 7 7 9 10 10 15 16 13 10 9 10 12 13 12 11 10 11 10 10 10 9 7 7 8 9 9 9 9 9 10 10 10 10 11 11 11 11 10 9 9 10 11 11 11 11 11 11 10 7 6 6 7 9
2 0 1 1 2 2 3 3 7 7 6 7 7 7 5 6 3 10 7 6 9 11 5 11 13 8 6 8 6 9 12 7 7 10 10 11 11 12 12 12 13 17 12 10 8 8 8 8 10 10 12 16 12 10 9 9 11 12 11 11 10 11 10 9 9 9 9 8 9 9 9 10 10 10 10 10 10 10 10 10 9 9 9 9 9 10 10 10 10 10 10 8 6 7 7 8 11
3 4 2 2 0 1 3 4 3 5 8 10 6 9 1 3 1 3 7 12 10 9 4 11 8 14 12 9 7 7 6 6 9 10 10 10 8 10 12 10 11 11 17 17 14 12 10 7 9 11 11 10 9 10 10 9 9 10 11 11 11 11 10 10 8 8 9 9 9 9 10 10 10 11 10 10 10 10 9 9 9 8 8 8 9 9 9 9 10 10 9 7 7 7 8 9 12
2 1 1 1 3 2 3 3 1 1 9 8 9 9 6 3 8 7 7 8 6 5 9 12 12 11 8 13 5 6 8 8 9 10 12 12 12 10 9 6 5 4 5 11 11 13 13 11 11 10 10 10 10 7 5 8 11 10 10 10 12 12 11 10 10 9 9 10 10 10 10 10 10 10 10 10 10 10 10 9 8 7 7 8 8 8 8 9 9 9 7 7 7 6 7 8 9
3 1 1 1 3 1 5 0 0 2 7 4 8 8 8 7 4 8 1 4 6 14 9 2 1 2 10 12 16 15 12 11 10 13 13 14 11 9 7 6 5 6 2 7 10 10 10 11 10 12 11 11 9 8 7 6 10 11 11 11 11 12 11 11 11 11 11 11 11 11 10 8 8 7 11 8 10 10 10 7 7 6 6 7 8 8 8 8 8 7 6 6 6 5 6 6 10
1 1 1 1 6 3 3 2 1 3 6 6 10 8 6 4 5 3 1 14 21 9 16 9 4 6 10 8 19 17 13 11 11 12 13 10 9 7 5 4 5 3 4 4 6 9 10 10 10 11 12 12 11 10 7 7 9 12 10 13 13 12 11 11 10 10 10 10 9 9 9 5 3 3 5 4 9 6 9 8 7 6 6 7 7 8 7 6 6 5 5 5 4 4 4 6 8
1 1 3 2 5 8 1 2 2 4 4 8 8 6 8 8 7 4 3 16 16 18 16 11 20 16 15 15 16 16 15 14 13 14 9 8 7 7 6 5 6 8 8 8 7 9 10 10 11 12 11 13 12 9 7 6 7 10 7 6 5 8 9 9 7 5 6 3 8 6 4 3 3 3 3 6 3 5 6 9 7 5 5 6 7 7 6 5 5 5 5 6 6 6 6 3 3
3 1 3 7 5 3 3 0 4 3 3 5 7 9 6 4 1 3 6 10 15 17 10 17 15 14 17 16 15 15 15 13 12 13 12 11 9 11 8 7 7 7 8 8 8 10 8 9 10 13 13 13 13 10 8 7 7 6 7 7 4 8 6 5 4 4 3 4 4 4 4 3 3 3 3 4 4 8 6 9 8 6 5 5 6 6 5 4 4 5 6 6 6 6 4 5 5
4 3 4 7 6 3 2 3 2 2 1 5 7 7 7 9 3 1 6 9 15 16 11 13 18 17 16 14 14 13 13 13 13 14 14 12 10 10 9 9 9 10 9 7 8 6 8 9 13 13 14 13 12 9 8 7 7 7 7 6 5 4 5 5 5 4 4 4 5 4 4 3 3 3 6 9 7 4 5 8 9 7 5 5 5 4 4 3 4 5 6 6 4 4 5 5 5
2 3 4 6 4 2 1 4 3 3 3 2 4 4 8 8 4 3 3 11 7 7 14 17 16 16 15 15 15 14 13 12 11 13 13 11 8 8 11 13 13 10 6 5 5 8 9 10 11 13 15 14 13 10 9 8 8 7 7 7 6 5 5 5 5 4 5 5 5 4 4 3 3 3 3 3 4 4 3 3 4 3 2 2 4 2 1 1 2 2 2 3 3 3 4 4 5
1 5 6 7 5 3 2 1 2 1 4 6 5 8 3 5 4 5 8 8 6 5 8 17 18 16 17 14 13 11 12 12 12 11 12 14 15 12 7 5 1 4 5 7 8 7 8 8 8 11 14 15 14 12 11 10 10 8 8 8 7 6 6 5 4 5 5 5 6 5 5 5 4 3 3 4 4 4 4 4 4 3 2 1 2 1 0 0 0 0 1 1 2 2 3 3 3
4 4 4 5 5 3 0 1 3 4 2 4 3 1 1 5 1 3 7 7 3 6 14 16 17 17 15 13 11 10 11 12 11 11 9 8 9 9 10 9 10 10 8 7 4 4 4 3 4 5 11 14 16 14 12 10 9 8 8 8 8 6 6 6 5 5 5 5 6 5 6 5 5 5 4 4 4 4 4 4 4 4 3 2 2 2 2 1 1 1 2 2 3 4 4 3 2
5 6 3 6 3 3 2 1 4 2 7 3 1 2 6 5 5 3 4 2 9 14 14 13 13 12 12 11 8 9 6 5 6 4 4 10 14 16 14 13 9 5 4 5 4 1 2 3 2 2 1 6 10 11 12 10 8 8 7 8 8 7 7 6 5 5 5 5 5 5 5 6 6 6 5 5 5 4 4 4 4 4 4 3 2 3 3 3 2 2 2 2 2 3 4 4 1
7 8 5 3 1 1 1 1 4 3 4 3 6 4 0 2 1 2 3 5 15 11 11 13 11 10 8 8 7 5 4 1 0 1 1 0 3 2 2 3 3 4 6 3 1 0 1 1 1 1 3 5 6 9 10 9 10 9 8 7 7 8 7 6 6 5 5 5 5 5 4 6 5 5 6 5 5 5 4 4 5 4 4 4 3 4 4 4 4 4 3 3 3 4 4 4 2
6 6 1 1 1 1 2 4 3 3 2 3 2 1 1 3 3 2 3 5 12 14 12 12 11 11 9 7 6 4 2 1 0 1 2 1 1 4 4 4 4 6 4 2 2 1 1 1 0 1 1 1 5 8 9 9 10 10 10 9 8 8 7 7 5 5 5 5 5 5 5 6 6 6 6 5 6 5 5 4 4 4 4 4 5 5 5 5 5 4 3 4 5 4 4 4 4
2 2 2 3 3 0 2 3 1 0 0 1 3 2 1 2 3 1 4 6 23 19 14 11 13 11 9 7 5 5 3 2 3 4 1 0 1 3 3 3 3 2 3 2 2 2 2 2 1 0 1 3 3 1 5 9 11 11 11 10 9 8 8 7 6 6 5 5 6 5 5 6 6 6 6 6 5 5 5 5 5 4 5 5 5 6 5 5 4 5 5 6 6 5 5 5 5
2 1 2 4 6 4 1 1 1 1 1 3 5 1 1 2 1 4 4 12 23 20 14 14 13 10 8 7 6 3 3 4 4 4 3 1 1 2 2 1 1 2 2 2 2 2 4 3 2 2 2 4 3 2 1 2 5 7 9 9 9 9 8 7 6 6 5 5 6 6 5 6 6 6 6 6 6 5 5 5 5 5 6 5 5 6 6 5 5 6 5 6 6 4 5 5 5
1 4 1 4 5 4 5 1 1 2 2 2 2 4 2 2 3 3 4 16 22 20 16 14 13 10 8 7 6 4 4 2 0 1 2 3 1 1 1 1 1 2 3 3 3 4 4 4 3 3 3 4 4 3 5 3 1 2 5 6 6 7 8 7 6 6 6 6 6 7 5 6 6 6 6 6 6 6 5 5 5 5 6 6 6 6 5 0 3 4 6 5 5 4 4 4 4
3 4 1 6 6 6 8 3 1 2 1 5 4 1 6 6 5 5 7 20 20 17 14 13 10 10 8 6 5 4 4 4 3 2 2 1 0 1 0 1 2 3 3 3 4 4 4 4 3 3 3 3 3 3 6 6 5 5 1 0 1 4 5 6 6 5 6 6 6 7 7 6 6 6 7 5 5 6 5 5 5 6 6 6 6 5 4 6 5 6 5 6 6 6 6 5 5
1 1 3 0 3 4 6 1 0 1 1 6 4 3 4 1 3 2 11 21 21 15 12 11 10 9 7 6 6 4 3 2 2 1 1 0 0 1 1 1 1 3 3 4 4 4 5 5 3 3 3 3 4 6 6 5 6 6 7 3 2 3 4 6 5 6 6 6 6 7 7 7 6 6 6 6 6 6 6 6 6 6 6 5 6 5 3 5 5 5 5 6 5 5 5 5 6
2 3 4 3 2 7 6 4 1 5 1 2 12 5 3 1 2 3 14 18 20 15 12 12 10 9 8 6 6 5 4 4 5 3 1 0 1 0 2 0 1 1 1 3 6 5 7 8 7 5 5 6 6 5 4 4 5 3 5 7 6 3 4 5 5 6 6 6 6 7 7 7 6 6 6 6 6 6 6 6 6 5 5 5 6 5 3 5 5 4 3 5 6 5 5 5 5
4 2 3 2 1 5 7 5 5 8 4 1 4 6 1 0 2 6 17 19 18 15 12 11 12 11 9 6 5 3 4 5 6 5 4 4 3 1 1 1 2 2 2 3 7 8 7 6 7 6 6 7 8 9 8 8 8 6 5 4 8 6 5 5 5 5 6 6 6 6 7 7 7 7 7 7 7 6 6 6 6 6 5 6 6 6 3 4 3 4 3 2 5 5 5 6 5
4 1 3 3 4 3 3 5 2 7 6 2 4 6 4 5 2 13 17 20 18 15 12 12 11 9 8 8 7 7 7 7 8 6 5 4 3 2 1 1 3 3 2 5 7 7 5 6 7 4 4 2 3 4 5 4 3 4 4 2 4 7 8 4 5 5 6 6 7 7 7 8 7 7 8 8 7 7 6 7 6 7 6 6 6 5 6 5 4 3 3 2 1 2 5 5 5
2 3 1 6 2 5 9 4 4 6 4 6 4 6 5 6 6 13 17 19 19 16 13 12 11 10 9 9 9 9 8 8 5 4 5 4 4 3 3 4 3 4 6 8 10 7 6 8 7 8 9 10 9 8 7 4 4 1 2 2 3 3 7 1 5 6 7 7 7 7 7 8 7 8 8 8 7 7 6 6 6 6 6 6 6 5 4 2 2 1 3 4 1 2 4 4 5
5 3 3 3 3 4 4 10 4 10 4 5 8 8 8 4 8 11 14 17 18 14 12 11 10 10 9 9 8 8 8 6 3 4 4 4 4 3 3 5 6 7 7 9 8 6 6 8 11 9 8 5 6 8 7 8 5 3 2 4 2 4 3 5 4 5 6 6 7 8 7 7 7 7 8 8 8 7 6 5 5 5 5 6 6 5 4 4 3 3 3 4 3 1 1 3 4
5 2 1 3 3 6 4 1 6 9 4 1 1 6 7 5 10 12 14 14 15 15 13 11 10 10 9 9 10 9 8 5 3 4 4 4 4 5 4 3 3 5 5 6 7 8 10 7 5 7 7 7 8 8 7 8 7 5 2 4 5 2 3 8 3 4 3 4 4 6 7 7 6 6 6 6 7 7 6 4 4 4 5 6 6 6 5 4 3 3 4 4 5 3 2 1 3
3 1 3 7 3 5 5 1 2 3 4 1 5 8 7 5 5 12 13 16 15 15 13 12 12 11 10 13 11 9 7 4 4 4 4 4 5 6 5 4 4 1 2 4 5 6 4 2 4 6 3 3 6 9 8 6 7 8 7 5 4 3 4 1 8 0 4 2 4 4 4 6 7 6 6 5 5 6 5 5 5 5 5 5 5 5 4 3 2 2 2 3 1 4 3 3 4
4 2 2 3 6 4 5 5 4 1 7 1 2 8 7 4 5 5 10 11 8 9 12 11 13 11 10 10 10 9 7 6 5 4 4 4 5 6 5 5 5 4 2 3 2 0 5 6 6 5 6 7 8 8 8 9 8 8 9 9 7 2 1 3 3 9 3 5 4 5 4 4 4 6 6 5 5 4 5 5 6 5 5 5 4 4 4 4 3 3 3 4 3 0 1 1 4
1 5 5 3 3 5 4 5 5 4 4 1 2 9 1 6 9 9 5 9 8 8 11 10 10 13 11 10 9 9 8 7 6 4 4 3 4 4 4 5 4 5 4 3 1 3 2 3 4 6 7 7 7 8 9 9 11 10 9 7 9 8 4 5 2 9 3 5 5 4 4 4 3 5 6 6 5 4 5 5 5 6 6 5 7 6 5 5 4 3 3 4 3 3 2 3 4
3 1 0 1 3 1 1 2 5 5 5 4 5 6 3 4 9 6 6 7 11 8 10 8 7 9 9 8 9 10 9 7 5 4 4 4 5 5 4 4 4 5 5 6 2 1 1 3 5 6 7 8 8 8 7 6 6 6 5 3 4 5 2 3 4 3 8 2 4 4 5 4 3 3 4 7 6 5 4 4 5 6 6 6 5 6 6 7 6 5 5 4 5 5 4 3 2
4 1 1 1 1 1 1 1 3 3 2 2 5 3 3 5 6 6 3 6 8 3 9 8 8 8 7 9 9 8 7 5 6 5 4 3 3 3 4 4 5 4 5 5 4 1 2 3 3 4 5 6 7 8 6 7 8 9 9 9 9 9 8 7 9 7 6 3 5 3 4 5 4 3 3 4 6 6 6 5 5 6 6 6 6 7 7 5 5 5 6 6 6 5 6 4 4
1 1 0 3 4 4 4 4 5 2 0 2 1 5 3 4 4 2 2 7 6 2 5 6 6 7 7 8 8 9 8 5 4 3 3 4 3 4 4 4 3 3 3 3 3 3 0 3 5 5 6 6 5 7 6 6 8 8 11 12 11 11 11 7 7 6 6 4 3 5 4 3 3 4 3 4 4 6 6 6 5 5 6 6 6 6 6 7 7 6 4 5 6 6 4 6 6
2 4 3 5 7 6 3 4 4 0 3 4 3 4 3 3 3 0 0 6 4 4 2 3 4 6 6 6 8 8 7 6 6 4 3 3 3 3 3 3 3 3 3 3 3 1 2 2 2 4 4 6 5 5 6 6 6 7 7 9 9 10 11 10 8 9 6 2 4 4 5 5 4 3 4 4 5 6 6 5 4 4 6 6 6 7 7 6 5 4 4 5 5 5 6 6 5
4 5 5 4 3 1 2 4 3 1 4 6 6 1 3 1 3 3 2 9 2 3 2 2 3 4 6 7 8 7 6 6 5 5 4 3 3 3 1 2 3 2 3 3 3 3 2 3 1 1 2 4 5 7 6 5 4 3 3 2 6 6 7 6 5 4 7 5 5 3 3 4 3 3 3 4 4 4 4 4 4 4 5 5 5 5 4 4 5 6 5 5 5 5 4 4 4
3 3 4 4 4 3 4 3 5 4 4 4 5 1 2 1 3 2 1 4 5 4 3 4 3 4 5 6 6 7 6 5 4 4 4 3 3 3 2 2 3 3 3 3 3 3 2 2 0 0 1 3 5 7 8 7 4 2 2 3 4 4 2 4 5 6 5 4 4 3 2 2 2 0 1 3 3 2 3 3 4 5 4 3 3 4 4 4 4 4 4 4 3 4 3 3 5
3 4 3 6 6 4 4 3 2 4 1 2 5 3 5 2 5 7 6 4 6 6 2 1 2 4 4 6 7 6 6 5 4 4 3 3 2 3 4 4 4 4 3 3 4 3 3 2 2 1 1 2 3 7 5 6 7 7 6 7 6 5 5 6 7 6 4 3 3 3 3 1 1 1 0 1 2 3 2 3 4 5 5 4 4 4 5 5 5 4 4 3 3 4 4 4 4
4 1 0 5 7 7 4 4 3 1 2 2 4 4 2 4 1 4 5 4 5 8 8 6 5 5 4 4 5 5 5 4 4 4 4 4 5 5 5 5 5 5 3 3 3 3 4 3 2 0 1 1 3 3 4 5 5 7 6 6 8 7 6 5 7 6 5 5 4 3 3 4 2 2 1 1 1 1 3 3 4 5 6 6 7 6 5 5 4 4 4 5 5 5 4 4 4
7 5 7 2 3 3 2 2 2 2 5 1 3 5 3 0 2 2 0 3 5 4 6 7 5 4 4 4 5 4 4 4 4 3 4 4 4 3 4 5 5 5 3 3 3 3 4 4 4 3 3 2 2 3 4 3 5 5 6 7 9 9 10 8 8 7 6 6 6 5 4 5 4 4 4 5 4 4 2 1 5 6 6 6 5 5 4 4 4 5 5 5 5 5 6 6 6
6 3 3 3 0 1 2 3 1 3 5 3 2 2 1 2 3 3 3 3 4 4 4 4 5 5 5 4 4 5 5 5 4 3 3 3 2 2 3 4 4 4 4 4 3 3 3 3 3 4 4 6 2 1 4 5 4 3 3 4 3 6 9 8 7 8 7 6 6 6 6 6 5 3 2 3 2 2 4 1 3 5 6 5 5 5 5 4 4 5 4 5 6 3 0 1 2
0 2 2 5 5 3 2 2 4 3 5 5 5 0 2 2 2 1 6 4 4 5 5 3 4 5 5 4 4 5 5 4 4 3 3 2 1 1 1 3 3 4 4 4 3 3 3 3 1 0 1 2 1 4 4 4 5 4 4 2 4 4 7 5 5 6 6 5 2 3 4 4 4 5 4 2 1 2 2 1 3 5 2 4 3 3 2 2 2 2 1 2 1 3 3 4 3
1 1 5 5 3 5 1 4 3 2 1 3 1 1 1 3 2 0 1 3 5 5 5 5 5 4 4 4 4 4 4 4 3 4 3 1 0 0 1 3 3 3 4 4 4 4 3 3 2 2 1 1 2 4 4 4 3 4 5 8 7 5 3 6 5 3 5 5 5 4 3 2 1 1 2 3 4 2 1 3 3 2 2 3 1 1 1 1 1 2 3 3 4 3 5 5 5
3 2 0 2 3 5 3 2 0 3 4 4 1 0 2 2 2 1 1 4 3 4 4 4 4 5 4 4 4 4 4 4 4 3 1 1 0 1 0 1 2 2 3 4 4 3 3 4 3 3 3 2 1 1 2 2 6 6 4 2 4 5 4 5 6 7 7 6 4 3 4 5 4 2 2 3 2 3 3 1 3 1 4 4 3 1 1 2 3 3 4 3 4 4 5 6 5
3 2 3 1 4 4 4 3 2 1 2 4 0 4 1 3 3 2 3 5 4 4 4 4 3 4 5 4 4 4 3 3 3 2 0 1 1 1 0 0 0 3 2 4 5 3 3 3 3 3 3 4 3 2 2 0 3 3 5 5 5 5 5 6 6 7 7 7 5 4 3 4 4 4 4 2 1 1 2 1 3 3 1 3 4 3 3 3 3 4 5 5 5 6 5 3 4
4 5 4 2 1 0 3 4 0 0 1 2 1 2 2 7 5 3 7 7 6 5 4 5 4 4 4 4 3 3 3 3 2 0 0 2 2 3 2 1 0 3 2 2 2 4 3 3 4 3 2 2 2 2 3 3 3 1 3 5 6 5 7 6 6 6 6 5 5 5 5 3 2 2 3 4 3 2 3 4 2 3 4 3 3 3 3 3 3 4 5 5 4 5 5 5 4
3 3 2 0 4 2 2 4 3 5 3 1 3 1 4 7 5 10 11 10 8 7 6 6 6 5 5 4 3 2 3 3 1 1 2 3 3 3 3 2 1 1 1 2 5 4 4 3 3 3 3 3 4 3 3 5 5 5 5 5 5 4 8 7 7 6 5 5 4 3 4 4 5 3 3 3 2 1 1 4 2 2 7 3 3 3 3 4 4 5 5 3 4 4 4 5 3
1 1 0 0 1 2 3 0 2 2 2 3 3 2 6 7 5 8 9 9 10 10 9 6 6 5 4 4 3 2 1 1 0 1 1 1 2 2 3 3 1 1 0 1 3 3 4 4 3 3 5 6 6 4 5 6 5 6 6 7 8 2 7 6 6 6 5 4 4 4 3 4 5 4 3 2 2 1 1 2 2 6 8 4 4 3 3 4 5 5 4 5 4 4 4 4 3
1 4 4 7 4 1 1 4 1 1 2 2 3 7 6 7 2 6 6 7 9 8 10 7 5 5 5 4 3 3 1 0 1 3 3 3 3 3 3 2 2 3 1 2 3 5 5 5 4 4 5 6 5 6 2 5 4 3 6 6 5 4 8 6 5 2 3 2 2 1 2 1 0 1 3 3 3 3 2 1 4 8 8 3 3 3 3 3 4 4 4 4 4 4 4 4 3
Wind_Direction
283 316 338 168 150 89 66 22 68 306 65 238 244 254 250 251 233 316 240 275 86 149 125 311 264 133 178 198 184 147 104 112 209 133 216 208 121 130 128 113 113 116 121 127 131 133 136 132 131 129 132 134 131 124 120 113 111 111 113 116 118 115 112 111 108 106 104 103 104 106 108 108 107 105 104 103 105 105 105 104 101 100 102 102 100 98 99 100 99 100 100 99 97 96 94 93 94
300 347 359 140 213 79 327 134 106 5 35 17 255 209 241 274 330 263 234 218 183 143 158 167 206 149 104 108 124 114 25 31 87 133 69 105 109 122 122 119 119 125 123 126 130 128 130 135 130 130 133 132 130 125 121 115 114 117 119 118 117 119 116 114 110 107 105 104 104 106 108 107 105 104 103 102 103 106 106 104 103 103 102 103 101 102 104 102 103 101 101 100 101 99 98 97 99
3 17 9 32 30 83 240 61 340 154 115 264 274 226 290 290 259 254 236 213 151 134 137 127 156 88 108 73 29 23 133 76 102 93 107 123 112 136 121 118 119 122 124 131 135 133 129 132 131 131 133 132 130 127 123 120 118 121 123 124 124 121 120 117 113 111 108 105 106 106 105 104 103 103 102 104 107 106 107 106 102 101 101 98 100 101 101 103 103 104 103 103 101 100 96 93 87
90 61 96 46 357 16 61 30 103 133 158 212 271 269 232 240 260 250 236 159 167 145 78 38 111 287 104 115 174 124 100 133 112 132 130 145 130 130 121 118 118 121 126 132 136 137 135 136 134 134 134 132 133 131 128 125 123 125 127 127 128 125 122 118 116 113 110 107 107 109 106 104 102 100 100 100 102 104 105 104 102 100 97 95 96 100 104 105 106 108 106 106 101 98 88 74 70
58 20 109 82 108 360 99 196 168 109 218 210 215 262 239 234 253 260 45 174 186 110 118 176 92 318 326 151 158 143 188 94 112 107 108 105 127 128 126 123 121 123 124 134 135 136 136 138 138 138 136 137 136 134 132 130 128 128 129 131 133 131 128 122 118 116 112 109 110 109 107 104 101 99 98 98 99 99 101 101 98 97 93 92 98 102 105 106 108 109 110 110 110 97 77 64 59
52 61 335 88 120 207 33 12 315 212 229 186 226 263 266 246 255 249 149 169 161 123 136 167 152 161 100 360 23 101 124 142 155 79 117 138 135 133 130 130 128 124 126 129 137 139 139 139 139 138 137 136 136 135 135 133 132 133 134 134 136 135 132 126 122 119 116 113 112 110 107 105 104 102 103 99 98 99 100 98 95 92 93 98 103 107 106 104 106 110 113 117 111 89 69 62 55
350 29 15 30 340 70 136 154 240 237 265 190 238 260 267 278 261 188 100 73 4 63 82 169 105 103 62 112 62 58 58 120 123 125 116 133 127 128 133 133 129 131 134 137 140 140 142 141 142 141 138 136 135 134 134 133 135 138 136 138 138 135 135 129 126 124 121 119 117 114 111 107 106 107 107 103 101 100 99 97 95 89 88 92 98 102 100 104 109 111 115 116 100 78 71 63 51
143 100 260 98 266 66 257 195 244 192 262 190 236 247 258 266 253 125 196 111 192 98 221 117 106 84 300 34 105 335 61 50 101 105 117 124 130 131 132 130 127 133 136 139 141 142 143 140 143 143 140 139 139 139 137 137 137 138 139 138 138 138 140 134 129 126 124 123 123 119 117 112 110 111 109 107 103 101 100 98 93 87 88 93 98 102 105 108 112 112 114 110 87 79 72 63 46
7 90 317 67 345 310 343 254 241 231 273 274 270 249 256 268 277 148 63 18 54 149 201 133 134 122 224 72 72 71 66 94 106 111 120 128 130 135 132 132 134 139 139 138 136 134 130 137 138 141 140 140 141 142 141 140 141 143 143 141 143 143 143 140 134 130 129 129 128 124 120 116 114 113 112 107 103 102 102 100 93 94 95 95 98 100 104 110 113 114 114 101 88 81 73 55 39
13 109 251 151 141 276 267 282 263 245 242 257 256 270 259 268 276 139 116 187 230 133 190 98 66 107 111 85 86 53 102 105 107 92 89 117 124 122 121 124 124 129 132 136 134 131 135 136 135 138 138 138 140 142 141 140 143 145 147 145 146 144 142 142 136 134 133 133 131 127 121 117 113 114 112 106 104 105 103 99 97 97 96 97 100 102 104 109 113 111 103 92 88 83 69 46 34
338 356 171 65 24 251 254 268 271 298 278 274 268 250 247 233 198 152 139 192 185 189 95 104 93 115 96 64 63 100 98 98 90 86 90 100 100 108 110 109 108 105 103 106 122 133 136 137 136 134 133 133 137 139 139 138 139 143 144 145 145 144 142 141 138 135 133 133 131 129 121 118 114 113 114 110 107 106 101 99 99 99 99 100 99 101 105 107 102 100 95 93 91 80 59 41 24
24 32 22 127 194 183 238 218 272 273 273 275 271 266 236 224 182 138 224 94 254 60 128 129 163 125 88 112 109 104 87 81 101 110 105 109 108 113 117 114 98 83 98 108 122 125 131 135 136 137 134 128 126 128 133 138 142 144 142 145 146 147 144 142 144 140 135 132 133 133 126 122 118 115 116 113 109 105 104 102 101 102 102 101 101 104 105 104 103 100 97 98 95 78 56 39 33
129 187 80 96 231 157 242 257 257 280 311 290 270 294 204 154 190 135 198 131 78 62 93 128 133 102 116 108 122 98 81 77 98 101 98 104 113 115 108 111 122 129 134 137 136 135 139 144 141 137 135 130 125 126 135 144 144 141 143 143 147 150 143 141 145 145 141 137 136 136 128 125 123 118 118 113 109 106 106 104 102 104 102 101 101 102 104 105 107 105 105 105 94 71 57 42 49
133 175 122 261 218 272 281 254 283 331 296 281 279 259 123 93 110 59 104 84 79 90 100 116 113 100 95 106 106 93 106 112 99 93 89 82 79 88 102 129 136 139 144 147 148 147 149 162 147 142 136 130 128 132 142 148 141 140 145 146 148 147 142 138 140 140 140 140 140 137 132 130 127 124 120 115 112 110 109 110 106 105 103 101 101 103 104 108 113 113 113 108 84 70 62 59 67
188 169 99 152 304 346 238 239 275 353 290 307 312 359 85 102 121 92 95 107 95 118 134 116 140 103 187 129 145 154 152 131 106 97 87 91 88 97 110 109 76 56 116 136 146 152 156 159 150 137 134 129 125 125 132 153 146 145 148 147 149 146 143 141 145 143 144 145 145 143 140 136 131 129 124 120 118 118 116 110 110 106 100 99 101 104 109 115 118 118 113 97 81 74 70 72 64
179 111 106 133 266 218 271 220 341 38 305 313 316 18 49 14 4 85 333 95 83 40 50 52 355 153 155 143 150 147 130 118 113 107 106 103 100 99 112 117 108 115 105 149 151 152 152 156 152 140 137 132 127 128 138 153 153 153 150 144 151 151 148 149 152 150 151 153 153 151 146 139 136 133 131 126 126 123 117 114 112 103 97 95 96 103 110 116 118 114 107 92 90 82 85 76 83
63 114 290 85 285 234 258 138 64 346 308 324 321 43 48 14 333 67 175 80 76 55 57 19 48 62 127 124 126 121 123 120 113 105 102 105 109 110 110 107 114 87 132 158 159 150 156 156 154 140 138 134 133 133 142 150 159 154 156 153 157 156 155 152 151 154 153 157 155 155 145 121 110 113 119 126 125 121 123 119 112 107 94 90 92 98 102 107 102 87 77 77 72 71 42 76 78
87 202 159 249 214 256 186 59 355 298 357 314 347 330 62 42 359 348 20 72 87 80 72 65 58 69 92 99 110 124 134 128 127 118 115 116 131 131 134 154 152 158 164 172 178 161 160 160 153 143 139 140 138 139 144 153 159 152 143 149 156 154 157 155 152 155 147 141 152 134 98 109 96 110 127 129 113 124 123 125 118 108 94 83 87 91 91 87 82 58 53 46 32 26 38 36 54
153 200 129 227 212 228 102 95 350 352 311 293 353 357 19 28 68 340 65 61 90 83 82 87 80 86 98 114 130 136 137 132 132 132 139 145 154 152 157 163 171 168 181 178 180 171 174 162 160 148 146 145 141 141 144 151 148 140 135 137 164 151 153 146 138 152 123 137 114 106 106 100 113 117 120 131 124 128 131 133 127 116 98 86 80 86 87 86 67 46 42 33 28 24 15 12 16
222 138 205 238 236 269 50 59 325 273 130 355 14 3 15 337 360 348 83 93 99 109 109 96 113 127 132 133 136 139 141 141 146 148 155 160 156 155 164 174 179 188 184 181 172 181 187 179 170 156 149 146 144 142 138 144 146 141 134 138 145 141 137 136 137 152 143 128 118 111 112 121 115 135 152 143 134 121 136 137 132 127 117 102 89 60 60 52 38 29 25 19 18 10 4 3 3
270 125 190 236 250 327 352 352 312 291 61 73 2 346 28 347 341 41 64 76 68 118 138 138 138 140 142 148 149 156 151 150 156 159 161 156 155 176 177 182 183 181 175 164 184 192 194 196 178 157 150 148 144 141 142 147 145 141 139 141 146 139 135 138 140 150 149 137 138 139 138 142 136 149 116 107 100 114 105 112 117 103 80 74 85 47 18 8 31 14 3 6 360 357 349 349 1
16 206 209 218 264 268 251 231 186 343 343 81 33 29 333 312 20 18 69 87 96 147 156 137 139 138 142 152 159 151 156 160 168 170 167 165 169 179 196 202 202 170 170 185 194 191 202 209 206 163 153 150 150 150 152 149 147 150 148 149 146 146 145 150 148 156 163 155 153 155 147 147 151 147 129 128 129 125 124 125 123 125 127 120 93 102 303 359 339 359 346 331 314 330 314 321 359
234 280 253 231 233 231 187 220 119 87 31 45 55 322 287 19 340 10 62 64 64 129 144 141 142 145 146 146 151 157 162 171 176 177 161 163 178 186 191 189 181 187 186 190 194 196 209 246 256 198 159 156 154 152 149 149 154 155 150 151 150 153 152 159 164 175 179 167 167 163 152 157 158 152 147 142 142 140 143 142 140 141 159 154 136 167 228 247 217 259 290 285 317 314 308 316 343
207 243 246 255 175 214 214 227 134 108 102 87 184 78 31 23 18 349 44 27 107 138 139 137 128 126 132 133 143 146 150 173 197 176 182 187 182 187 186 185 190 175 171 181 199 260 181 239 305 313 250 152 148 146 144 147 149 152 157 156 155 155 153 169 178 183 182 177 178 177 157 155 159 159 154 151 156 148 159 155 151 149 164 171 165 181 217 233 226 255 259 271 277 282 281 286 284
209 246 217 254 230 195 227 227 72 79 110 143 59 54 272 81 269 12 341 41 100 118 117 116 114 110 108 114 114 104 110 80 188 80 71 266 221 227 225 206 190 178 183 182 161 40 171 273 325 252 189 156 148 147 149 150 150 152 157 162 162 162 164 175 181 181 185 186 189 181 161 155 158 158 159 158 153 163 162 163 165 168 174 185 180 207 212 212 217 221 231 244 246 257 261 273 172
219 226 322 2 315 248 123 60 52 98 166 93 69 160 281 240 181 36 294 71 103 110 105 98 93 88 79 66 66 70 71 66 29 168 168 205 184 183 214 207 184 184 174 149 117 67 53 48 97 290 303 179 163 158 155 154 157 158 164 168 168 166 172 177 180 186 193 184 191 185 171 161 162 165 162 156 159 170 175 173 176 185 185 193 196 211 213 206 214 211 216 237 235 234 237 206 164
168 160 175 97 336 28 2 97 338 354 15 217 149 166 239 310 121 256 337 82 104 116 103 95 98 95 90 86 67 38 33 8 349 335 29 22 256 232 224 222 208 157 98 97 46 34 81 87 106 31 358 351 334 215 170 165 163 166 167 167 168 173 173 175 184 190 188 190 188 181 171 167 159 164 164 162 165 171 180 179 192 188 198 205 206 222 210 212 205 207 203 211 226 219 193 179 151
75 151 2 4 356 350 260 44 333 74 343 154 152 164 194 358 105 168 191 97 108 108 108 108 103 106 111 108 96 60 40 8 355 356 334 313 318 330 302 302 15 35 69 74 63 39 76 67 57 35 36 14 4 317 311 182 179 172 168 167 171 172 168 177 185 187 186 191 186 182 169 169 163 168 170 166 169 173 184 187 193 191 206 211 207 221 224 216 209 217 208 208 208 183 171 159 159
170 82 23 306 9 4 324 302 237 102 259 135 121 52 7 339 151 225 156 104 107 110 112 112 116 119 121 120 118 127 142 164 233 303 287 288 322 360 321 15 88 77 62 95 75 55 54 51 51 48 51 32 28 347 339 325 315 223 182 174 173 168 171 173 183 185 184 188 185 184 173 171 169 170 178 172 171 181 184 188 197 204 208 210 213 221 216 321 260 224 222 194 168 167 153 150 158
353 33 82 358 8 343 285 303 242 108 235 137 94 18 285 291 261 236 110 111 107 110 117 123 122 126 124 125 129 138 150 156 166 196 224 273 337 16 143 270 142 127 108 94 77 60 51 47 63 69 68 51 25 31 20 7 354 353 355 344 174 171 177 173 181 181 182 185 186 187 179 176 171 175 173 178 171 180 187 192 198 210 210 209 219 219 182 207 227 223 187 149 162 166 158 157 155
200 268 58 297 31 279 278 241 280 163 178 133 80 115 297 341 84 184 115 117 113 113 117 112 111 105 104 101 100 85 38 56 80 88 109 25 30 74 66 237 150 126 121 92 94 92 56 44 53 65 98 54 44 45 44 28 11 21 13 338 175 192 188 188 179 183 181 183 181 190 184 181 176 177 178 175 180 178 187 196 204 213 210 207 216 226 183 169 218 190 162 145 161 167 157 166 171
2 44 307 325 157 277 289 298 161 201 33 86 86 78 137 219 142 131 107 107 108 108 108 106 103 99 92 81 73 65 38 15 16 18 356 122 100 122 126 124 104 122 101 119 110 87 59 34 22 39 42 48 39 39 33 42 26 32 53 13 319 203 203 201 193 186 178 181 180 187 187 183 183 179 181 179 183 184 187 197 209 208 209 203 216 220 195 187 200 176 181 148 152 172 165 179 179
0 104 274 310 274 256 348 293 200 193 129 323 116 173 169 41 262 68 107 109 107 106 103 102 98 94 92 95 87 74 55 26 14 5 4 3 343 323 261 171 147 145 107 74 77 80 81 57 55 33 13 8 24 19 22 24 20 354 29 47 13 310 211 208 207 186 174 174 178 188 186 185 187 183 185 186 187 191 191 198 210 206 201 195 208 210 184 222 167 175 201 165 162 169 176 181 187
320 5 206 220 232 275 253 296 257 202 142 178 106 127 190 177 126 102 111 114 110 109 111 107 105 107 108 102 95 86 71 55 38 14 25 38 29 7 311 139 102 85 111 106 91 69 52 43 51 84 145 175 126 57 6 34 22 353 337 15 58 356 292 234 202 189 180 177 175 180 189 193 188 188 187 187 192 195 193 196 201 207 196 192 197 196 190 193 165 164 203 242 151 153 188 169 194
260 312 301 300 270 235 233 264 244 177 155 148 139 108 181 161 119 108 117 117 118 123 126 125 120 116 107 98 96 91 80 70 46 34 21 5 10 4 38 30 27 61 53 65 77 95 135 161 170 175 184 199 158 149 187 191 160 127 294 336 84 46 304 287 191 188 189 179 177 171 177 190 187 184 187 186 188 194 192 190 182 198 188 185 185 193 198 156 120 171 190 233 142 204 196 190 183
225 239 203 204 273 284 243 235 196 151 137 145 164 152 170 154 114 115 120 122 120 125 123 121 118 113 107 102 102 100 94 78 59 57 52 36 30 30 34 51 64 68 74 99 123 156 168 178 183 185 190 191 135 173 177 183 164 126 279 312 318 116 311 296 177 182 178 189 181 171 169 161 172 166 180 178 182 185 180 181 170 178 180 172 180 189 198 196 167 166 238 214 187 179 256 194 154
247 297 342 302 276 274 274 199 155 157 96 7 152 131 144 159 131 121 122 115 117 127 132 132 134 129 122 114 102 96 91 101 85 71 58 52 38 32 32 43 77 102 107 120 146 168 189 196 162 195 206 176 166 173 189 188 171 134 137 246 272 218 136 297 289 115 117 176 187 184 168 165 171 161 160 164 170 174 173 172 155 186 174 174 179 193 195 198 198 171 197 214 180 166 236 317 181
28 6 17 332 331 340 309 57 99 62 108 336 97 114 146 164 136 126 127 123 133 136 133 131 127 120 114 105 99 96 105 89 72 52 41 44 39 31 23 20 11 63 176 145 162 170 129 99 211 210 204 211 189 184 183 189 178 177 156 167 243 251 143 330 300 254 127 127 143 161 175 179 169 172 165 172 164 161 160 163 170 190 177 181 185 193 185 185 167 178 153 218 216 168 220 194 164
359 78 336 10 330 297 344 31 16 53 85 292 79 102 139 132 77 124 126 118 125 124 124 129 119 109 106 106 107 100 80 69 53 48 33 29 28 22 25 11 4 358 342 44 48 185 169 176 204 210 200 200 209 198 183 184 189 185 176 168 171 266 77 123 296 292 138 136 141 141 149 166 175 174 173 172 173 174 168 161 180 190 190 179 176 199 203 192 187 189 173 183 216 315 203 218 164
13 355 22 322 292 37 353 329 352 5 97 196 99 102 63 82 68 62 37 103 109 109 110 112 117 120 121 123 121 110 99 82 69 53 45 26 28 25 14 10 357 354 339 322 277 227 203 182 207 208 212 218 215 206 198 190 187 183 198 184 159 172 191 127 106 289 291 121 147 149 133 138 161 183 180 181 179 179 175 178 181 181 196 188 175 189 208 217 198 208 185 212 167 201 262 270 191
329 12 145 327 358 33 143 282 351 356 354 87 59 48 22 28 98 60 26 76 98 103 103 97 93 104 114 113 108 111 114 112 93 66 49 34 32 24 13 2 0 1 348 342 269 208 186 212 211 209 216 221 224 221 204 175 174 163 154 125 136 144 108 129 128 236 277 148 130 155 161 145 139 179 203 189 183 178 188 185 180 191 184 191 180 184 196 213 210 194 191 193 198 192 224 245 270
312 275 48 3 66 58 321 65 70 24 339 319 122 39 31 355 57 75 51 84 83 73 105 106 112 108 110 110 112 104 97 101 113 115 103 69 46 20 21 17 18 360 3 338 6 216 193 243 253 249 240 226 223 228 213 172 184 175 166 166 178 185 192 180 186 195 249 194 175 168 163 161 148 145 185 225 199 172 188 198 189 186 193 189 187 192 199 206 217 202 201 195 207 209 196 207 253
49 281 260 2 20 25 24 26 66 54 86 285 98 130 168 326 70 46 98 98 87 44 96 121 125 132 129 127 121 114 119 110 97 107 112 80 49 44 21 20 1 4 320 322 336 3 315 234 237 244 241 234 228 225 216 193 189 193 190 190 188 189 190 198 184 196 218 222 149 170 169 149 171 166 190 197 225 203 189 195 194 198 198 195 196 192 201 206 211 212 198 198 210 200 187 212 220
313 250 323 12 29 13 359 60 100 172 236 294 19 123 152 98 309 301 39 89 74 60 49 114 134 127 127 124 120 122 121 119 112 108 101 85 69 70 42 349 3 331 305 316 326 310 334 314 288 228 227 239 220 223 213 206 200 200 204 198 190 189 188 189 168 180 229 195 168 183 170 192 191 191 186 203 208 225 209 183 196 207 206 209 199 201 204 209 214 235 212 209 207 200 194 207 227
234 284 0 346 335 330 22 56 34 75 71 316 331 329 71 132 196 209 182 106 64 99 93 113 128 130 124 121 126 124 120 117 113 108 101 82 58 35 7 360 339 324 309 314 317 314 324 319 289 355 234 219 204 210 211 206 215 205 235 262 214 208 181 173 161 149 179 191 176 182 209 193 189 218 232 212 219 220 231 201 183 206 223 225 216 217 213 199 206 216 229 229 220 226 209 215 209
290 309 7 33 6 5 32 30 19 352 56 304 285 302 130 173 241 210 300 122 160 177 173 147 144 133 117 104 107 110 109 104 97 105 101 79 40 19 347 324 335 325 327 331 338 327 330 348 348 71 276 196 195 202 200 198 174 54 42 302 244 203 178 134 141 164 182 179 178 169 194 222 203 71 307 304 296 270 216 230 202 200 222 243 245 230 223 214 216 219 227 232 242 246 241 216 213
284 22 37 1 16 14 358 31 72 46 42 257 273 282 129 177 234 186 169 211 183 165 193 216 95 92 102 116 124 124 120 112 108 101 87 75 49 25 3 11 334 331 345 352 345 347 338 337 1 360 352 320 211 196 191 188 175 183 190 187 218 169 160 147 149 168 169 158 182 163 169 170 110 146 197 191 230 300 293 224 217 211 198 209 221 225 224 221 221 218 215 196 206 219 238 226 228
57 2 50 20 343 2 28 344 40 120 272 269 334 10 53 153 286 261 244 263 180 163 161 167 144 128 127 115 111 119 123 122 112 94 72 48 34 17 6 4 346 333 355 358 348 349 352 358 23 354 322 276 324 313 184 196 196 192 201 183 170 158 154 157 154 155 158 162 163 169 149 126 130 140 90 118 160 210 257 239 225 215 211 208 213 209 212 205 214 225 232 226 227 214 205 202 206
41 41 38 114 265 31 325 2 317 210 208 224 332 352 27 4 212 218 226 162 161 211 162 160 149 146 126 116 120 122 125 120 107 95 81 61 51 24 3 348 344 336 334 355 339 352 352 358 4 358 309 239 226 275 326 274 225 226 229 203 171 156 152 153 142 138 153 161 160 138 141 166 167 170 183 186 191 161 152 220 212 212 220 216 221 215 216 201 203 217 229 240 240 231 212 202 205
43 68 105 74 90 56 233 277 229 317 299 261 6 3 137 268 304 224 162 168 172 154 154 153 149 144 132 129 119 106 109 120 121 112 101 100 71 38 358 343 330 322 346 350 346 357 341 13 4 356 343 315 250 191 230 206 257 230 261 291 253 173 158 156 155 152 164 160 159 162 168 174 184 188 210 227 280 195 146 170 283 234 205 207 213 223 224 218 213 217 225 233 239 244 257 174 133
297 166 138 186 143 155 211 208 215 213 212 288 294 26 225 131 239 235 182 166 114 107 118 129 123 126 130 135 114 102 100 102 123 120 132 114 73 33 16 324 322 335 342 335 349 342 337 1 30 115 297 10 10 247 270 228 194 182 181 197 233 217 167 154 172 181 157 150 137 165 171 167 171 190 183 137 106 43 351 199 236 276 193 168 176 182 165 155 159 138 143 185 115 111 119 120 133
302 119 82 66 234 139 154 207 146 214 327 343 351 176 141 152 244 290 182 125 111 127 131 124 112 116 119 99 110 118 120 121 122 129 135 148 181 200 39 351 320 337 348 341 0 352 354 331 338 343 29 40 244 245 282 288 262 209 204 178 202 220 187 159 161 140 89 82 88 67 70 58 17 36 49 69 45 48 22 302 257 235 314 332 360 115 123 124 111 120 131 138 150 162 150 159 176
262 53 138 207 178 104 96 13 48 76 53 254 178 351 327 290 3 130 104 112 134 127 129 122 124 123 117 133 146 145 140 125 111 93 82 191 309 328 254 313 317 331 353 353 339 351 3 6 9 13 21 83 83 313 23 264 288 303 275 188 188 212 181 149 135 118 109 98 111 150 153 153 146 116 94 74 73 86 66 5 298 131 149 182 184 203 151 139 143 146 173 179 180 187 173 190 180
65 90 237 275 67 103 122 183 339 60 153 256 187 197 246 131 249 272 179 160 190 161 140 145 144 131 129 158 150 142 135 135 134 125 120 292 256 267 303 270 272 298 324 5 335 353 46 25 2 26 33 30 31 43 355 205 186 258 302 276 206 191 153 131 129 134 139 146 171 173 160 153 161 151 137 133 131 125 123 59 346 323 189 165 174 182 185 191 177 181 193 197 193 182 195 184 181
158 187 203 91 264 244 323 96 242 168 249 255 302 219 239 193 232 187 204 192 203 192 163 129 131 119 126 129 110 98 103 92 86 154 302 277 278 275 264 221 265 291 298 317 339 9 22 49 32 22 9 3 31 56 55 32 1 276 245 258 256 212 127 150 171 161 150 150 158 153 140 138 142 160 167 162 161 173 140 137 135 283 266 216 186 194 194 198 198 205 206 195 181 176 182 199 197
20 60 51 197 107 160 116 203 176 117 238 105 291 87 238 208 217 188 201 198 184 179 171 166 166 158 143 130 118 101 115 135 141 298 275 278 281 262 232 224 253 246 278 1 32 13 13 352 66 28 359 7 10 51 47 27 10 25 3 298 246 230 146 173 156 154 142 138 169 154 148 150 167 172 181 175 158 135 80 90 77 226 258 239 213 214 204 213 206 209 207 190 187 180 188 211 203
340 37 332 321 32 206 120 312 152 167 185 180 174 277 274 258 208 177 203 193 188 176 179 178 177 164 150 136 121 98 35 340 277 249 270 288 310 281 223 226 252 345 147 61 102 78 359 12 2 24 24 3 359 17 46 24 16 16 34 4 346 350 122 160 151 148 139 157 170 166 152 185 166 173 173 168 146 130 111 107 183 236 243 227 217 226 217 216 219 221 207 193 192 185 199 223 203
184 172 206 175 121 129 151 256 350 144 107 220 144 241 264 269 180 177 198 206 182 187 170 176 169 159 147 138 133 130 123 262 255 273 274 299 306 269 239 187 99 97 41 44 32 74 65 37 24 3 8 10 2 359 75 53 8 14 32 33 353 357 92 104 118 115 121 154 192 160 187 210 149 163 149 150 176 179 148 132 226 235 235 220 225 232 240 227 224 218 200 197 194 186 201 217 197